Regional Weather Roundup
Issued by NWS Albany, NY

Current Version | Previous Version | Graphics & Text | Print | Product List | Glossary Off
Versions: 1 2 3 4 5 6 7 8 9 10 11 12 13 14 15 16 17 18 19 20 21 22 23 24 25 26 27 28 29 30 31 32 33 34 35 36 37 38 39 40 41 42 43 44 45 46 47 48 49 50

744
ASUS41 KALY 240710
RWRALY

NEW YORK STATE HOURLY WEATHER ROUNDUP
NATIONAL WEATHER SERVICE ALBANY NY
300 AM EDT TUE MAY 24 2016

NOTE: "FAIR" INDICATES FEW OR NO CLOUDS BELOW 12,000 FEET WITH NO
SIGNIFICANT WEATHER AND/OR NO OBSTRUCTIONS TO VISIBILITY.

NYZ032-033-038>043-046>054-057>066-NYZ062>081-082-084-240800-
EAST


CITY           SKY/WX    TMP DP  RH WIND       PRES   REMARKS
ALBANY         CLOUDY    64  51  62 S7        29.90R
GLENS FALLS    CLOUDY    54  45  71 NW6       29.90R
POUGHKEEPSIE   LGT RAIN  60  53  77 SE3       29.90S
NEWBURGH       DRIZZLE   59  54  82 SE9       29.91S
MONTGOMERY     CLOUDY    58  53  84 CALM      29.90R
WHITE PLAINS   LGT RAIN  57  53  86 NW8       29.87F
ISLIP          LGT RAIN  56  52  86 W8        29.85F
NEW YORK CITY  LGT RAIN  62  58  86 W7        29.87F
CENTRAL PARK   LGT RAIN  58  53  84 CALM      29.91F
$$

NYZ005>009-017-018-044>046-055-056-240800-
CENTRAL


CITY           SKY/WX    TMP DP  RH WIND       PRES   REMARKS
FULTON         CLEAR     54  44  69 NW5       29.93S
SYRACUSE       CLEAR     52  45  77 CALM      29.93S
ROME           CLEAR     50  46  86 E3        29.94S
ELMIRA         MOCLDY    50  43  77 CALM      29.96R
BINGHAMTON     CLOUDY    56  42  59 N7        29.94S
MONTICELLO     MOCLDY    55  46  71 NE5       29.92R
$$

NYZ026>034-041>043-087-240800-
NORTH


CITY           SKY/WX    TMP DP  RH WIND       PRES   REMARKS
WATERTOWN      CLEAR     46  42  86 CALM      29.92R
FORT DRUM      NOT AVBL
MASSENA        PTCLDY    47  44  90 CALM      29.92S
SARANAC LAKE   CLEAR     33  30  88 CALM      29.95R
PLATTSBURGH    PTCLDY    47  40  76 CALM      29.90S
$$

NYZ001>004-010>016-019>021-085-240800-
WEST


CITY           SKY/WX    TMP DP  RH WIND       PRES   REMARKS
NIAGARA FALLS  CLEAR     53  48  83 SW6       29.97S
BUFFALO        CLEAR     57  48  72 SW7       29.98S
DUNKIRK        CLEAR     56  44  64 SW6       30.00S
JAMESTOWN        N/A    N/A N/A N/A MISG        N/A
WELLSVILLE     CLEAR     49  40  71 NW6       30.02S
ROCHESTER      CLEAR     55  46  71 W5        29.96F
PENN YAN       CLEAR     57  43  59 SW7       29.96S
$$

             KEY
       WCI = WIND CHILL INDEX
       VSB = VISIBILITY
       HX  = HEAT INDEX
$$




USA.gov is the U.S. government's official web portal to all federal, state and local government web resources and services.